Regional Weather Roundup
Issued by NWS

Home | Current Version | Previous Version | Graphics & Text | Print | Product List | Glossary Off
Versions: 1 2 3 4 5 6 7 8 9 10 11 12 13 14 15 16 17 18 19 20 21 22 23 24 25 26 27 28 29 30 31 32 33 34 35 36 37 38 39 40 41 42 43 44 45 46 47 48 49 50

000
ASUS43 KDMX 232101
RWRIA

WEATHER ROUNDUP FOR IOWA
NATIONAL WEATHER SERVICE DES MOINES IA
400 PM CDT SAT SEP 23 2017

NOTE: "FAIR" INDICATES FEW OR NO CLOUDS BELOW 12,000 FEET WITH NO
SIGNIFICANT WEATHER AND/OR OBSTRUCTIONS TO VISIBILITY.

* - THESE STATIONS ARE NOT NWS STATIONS...THUS NOT UNDER NWS
QUALITY CONTROL.  THEY ALSO DO NOT REPORT WEATHER SUCH
AS PRECIPITATION OR FOG.

IAZ001>003-012>014-020>022-031>034-043>046-232200-
   NORTHWEST IOWA

CITY           SKY/WX    TMP DP  RH WIND       PRES   REMARKS
CARROLL *      MOSUNNY   91  64  40 S16G25    29.93F HX  93
CHEROKEE *     MOSUNNY   87  65  48 S14       29.90F HX  89
DENISON *      MOSUNNY   88  66  48 S14G26    29.92F HX  90
LE MARS *      PTSUNNY   86  68  54 S13       29.88F HX  89
ORANGE CITY *  CLOUDY    90  70  51 S14       29.89F HX  95
SHELDON *      MOSUNNY   86  70  58 S9G17     29.88F HX  90
SIOUX CITY     PTSUNNY   87  70  56 S14G23    29.87F HX  92
SPENCER        SUNNY     89  65  44 S14G24    29.91F HX  91
STORM LAKE *   MOSUNNY   90  64  43 S16G23    29.92F HX  91
$$

IAZ055>058-069>071-079>083-090>094-232200-
   SOUTHWEST IOWA

CITY           SKY/WX    TMP DP  RH WIND       PRES   REMARKS
ATLANTIC *     SUNNY     90  64  43 S14G22    29.92F HX  91
AUDUBON *      MOSUNNY   88  66  48 S9G17     29.95F HX  90
CLARINDA *     SUNNY     91  61  35 S17G28    29.94F HX  91
COUNCIL BLFS * SUNNY     90  66  45 S18G24    29.90F HX  92
CRESTON *      MOSUNNY   90  61  37 S20G26    29.97F HX  89
HARLAN  *      MOSUNNY   90  64  43 S17G24    29.94F HX  91
LAMONI         MOSUNNY   89  65  44 S12       29.97F HX  91
RED OAK *      MOSUNNY   91  64  40 SE17G26   29.92F HX  93
SHENANDOAH *   SUNNY     91  61  35 S16G26    29.92F HX  91
$$

IAZ047>049-059>061-072>074-084-232200-
   CENTRAL IOWA

CITY           SKY/WX    TMP DP  RH WIND       PRES   REMARKS
AMES           MOSUNNY   90  66  45 S16G24    29.95F HX  92
ANKENY *       MOSUNNY   90  64  43 S13G21    29.96F HX  91
BOONE *        MOSUNNY   91  63  38 S15G22    29.95F HX  92
CHARITON *     SUNNY     88  66  48 SE9G18    29.97F HX  90
DES MOINES     MOSUNNY   91  63  39 S14       29.95F HX  92
GRINNELL*      MOSUNNY   91  62  38 S9        30.00F HX  91
KNOXVILLE *    SUNNY     90  64  43 SE13      29.96F HX  91
MARSHALLTOWN   SUNNY     91  64  40 S13       29.96F HX  92
NEWTON *       MOSUNNY   91  64  40 S16G22    29.97F HX  93
PELLA *        SUNNY     93  59  31 S9G16     29.98F HX  93
PERRY *        PTSUNNY   93  56  29 S14G21    29.94F HX  91
$$

IAZ004>006-015-016-023>025-035-036-232200-
   NORTH CENTRAL IOWA

CITY           SKY/WX    TMP DP  RH WIND       PRES   REMARKS
ALGONA *       MOSUNNY   88  66  48 S14G22    29.94F HX  90
CLARION *      MOSUNNY   91  64  40 S13G24    29.95F HX  93
ESTHERVILLE    PTSUNNY   87  67  51 S13       29.92F HX  90
FORT DODGE *   MOSUNNY   89  65  44 S12G17    29.94F HX  91
MASON CITY     MOSUNNY   90  63  40 S18G29    29.97F HX  91
FOREST CITY *    N/A     88  63  42 S16       29.96S HX  88
WEBSTER CITY * MOSUNNY   90  63  40 S13G24    29.93F HX  90
IOWA FALLS *     N/A     91  62  38 S16       29.98F HX  91
$$

IAZ007>011-017>019-026>030-037>042-050>054-066-232200-
   NORTHEAST IOWA

CITY           SKY/WX    TMP DP  RH WIND       PRES   REMARKS
CEDAR RAPIDS   SUNNY     93  59  31 S13       29.99F HX  92
CHARLES CITY * MOSUNNY   88  61  40 S12G18    29.98F HX  88
CLINTON *      SUNNY    N/A N/A N/A SW7       30.02F
DECORAH *      MOSUNNY   90  63  40 S8G16     29.98F HX  90
DUBUQUE        MOSUNNY   88  65  46 S9        30.03F HX  90
MONTICELLO *   MOSUNNY   90  63  40 S6G14     30.00S HX  90
OELWEIN *      MOSUNNY   91  63  38 S16       30.00S HX  92
WATERLOO       SUNNY     90  60  36 S16       29.96F HX  89
$$

IAZ064-065-067-068-078-232200-
   EAST CENTRAL IOWA

CITY           SKY/WX    TMP DP  RH WIND       PRES   REMARKS
DAVENPORT      SUNNY     91  62  37 SE10      30.02F HX  91
IOWA CITY      MOSUNNY   94  63  35 S10       30.00F HX  95
MUSCATINE *    SUNNY     93  61  33 SE9       29.99F HX  93
QUAD CITIES    PTSUNNY   92  64  39 S8        29.99F HX  93
$$

IAZ062-063-075>077-085>089-095>099-232200-
   SOUTHEAST IOWA

CITY           SKY/WX    TMP DP  RH WIND       PRES   REMARKS
BURLINGTON     SUNNY     92  64  39 SE8       29.99F HX  93
FAIRFIELD *    SUNNY     91  61  35 S8G14     29.98F HX  91
FORT MADISON * MOSUNNY   91  63  38 SE7       30.00F HX  92
KEOKUK *       SUNNY     93  61  33 SE12      29.98F HX  93
OSKALOOSA *      N/A     93  61  34 SE13      29.99F HX  92
OTTUMWA        SUNNY     91  63  39 S14       29.98F HX  92
WASHINGTON *   SUNNY     93  63  36 S9        30.00F HX  94
$$

ABBREVIATIONS USED IN REMARKS
   TC - TEMPERATURES IN CELSIUS
  WCI - WIND CHILL INDEX
   HX - HEAT INDEX
  VSB - VISIBILITY
$$




USA.gov is the U.S. government's official web portal to all federal, state and local government web resources and services.